EN

Hourly Weather Abay

Today, 12 June, Saturday

Time Temperature Precipitation Wind Pressure Humidity
00:00 +11°C° 0 mm 4 mps 717 mmHg 47%
01:00 +10°C° 0 mm 4 mps 717 mmHg 48%
02:00 +10°C° 0 mm 4 mps 717 mmHg 49%
03:00 +10°C° 0 mm 3 mps 717 mmHg 51%
04:00 +9°C° 0 mm 3 mps 717 mmHg 53%
05:00 +9°C° 0 mm 3 mps 717 mmHg 55%
06:00 +11°C° 0 mm 3 mps 718 mmHg 50%
07:00 +13°C° 0 mm 4 mps 718 mmHg 45%
08:00 +15°C° 0 mm 4 mps 718 mmHg 39%
09:00 +17°C° 0 mm 4 mps 718 mmHg 37%
10:00 +18°C° 0 mm 4 mps 718 mmHg 34%
11:00 +19°C° 0 mm 5 mps 718 mmHg 32%
12:00 +19°C° 0 mm 5 mps 718 mmHg 32%
13:00 +20°C° 0 mm 6 mps 718 mmHg 31%
14:00 +20°C° 0 mm 7 mps 718 mmHg 31%
15:00 +20°C° 0 mm 6 mps 718 mmHg 33%
16:00 +19°C° 0 mm 6 mps 718 mmHg 34%
17:00 +19°C° 0 mm 6 mps 718 mmHg 36%
18:00 +16°C° 0 mm 5 mps 719 mmHg 41%
19:00 +15°C° 0 mm 5 mps 719 mmHg 46%
20:00 +13°C° 0 mm 4 mps 719 mmHg 51%
21:00 +12°C° 0 mm 4 mps 719 mmHg 55%
22:00 +11°C° 0 mm 3 mps 719 mmHg 60%
23:00 +10°C° 0 mm 3 mps 719 mmHg 64%

Tomorrow, 13 June, Sunday

Time Temperature Precipitation Wind Pressure Humidity
00:00 +10°C° 0 mm 3 mps 719 mmHg 66%
01:00 +9°C° 0 mm 2 mps 719 mmHg 68%
02:00 +9°C° 0 mm 2 mps 719 mmHg 70%
03:00 +9°C° 0 mm 2 mps 720 mmHg 71%
04:00 +9°C° 0 mm 2 mps 720 mmHg 71%
05:00 +9°C° 0 mm 2 mps 720 mmHg 72%
06:00 +11°C° 0 mm 3 mps 720 mmHg 64%
07:00 +13°C° 0 mm 3 mps 721 mmHg 56%
08:00 +15°C° 0 mm 4 mps 721 mmHg 47%
09:00 +17°C° 0 mm 4 mps 721 mmHg 43%
10:00 +18°C° 0 mm 4 mps 721 mmHg 39%
11:00 +19°C° 0 mm 5 mps 721 mmHg 35%
12:00 +20°C° 0 mm 5 mps 721 mmHg 34%
13:00 +20°C° 0 mm 5 mps 721 mmHg 33%
14:00 +21°C° 0 mm 5 mps 720 mmHg 32%
15:00 +20°C° 0 mm 5 mps 721 mmHg 35%
16:00 +20°C° 0 mm 6 mps 721 mmHg 39%
17:00 +19°C° 0 mm 6 mps 721 mmHg 42%
18:00 +17°C° 0 mm 5 mps 721 mmHg 48%
19:00 +16°C° 0 mm 5 mps 721 mmHg 54%
20:00 +14°C° 0 mm 4 mps 720 mmHg 60%
21:00 +14°C° 0 mm 3 mps 720 mmHg 65%
22:00 +13°C° 0 mm 3 mps 720 mmHg 69%
23:00 +13°C° 0 mm 2 mps 720 mmHg 74%

Day after tomorrow, 14 June, Monday

Time Temperature Precipitation Wind Pressure Humidity
00:00 +13°C° 0 mm 2 mps 720 mmHg 72%
01:00 +13°C° 0 mm 2 mps 720 mmHg 71%
02:00 +14°C° 0 mm 1 mps 720 mmHg 70%
03:00 +14°C° 0 mm 2 mps 720 mmHg 71%
04:00 +14°C° 0 mm 2 mps 720 mmHg 73%
05:00 +14°C° 0 mm 2 mps 720 mmHg 74%
06:00 +16°C° 0 mm 3 mps 721 mmHg 69%
07:00 +17°C° 0 mm 3 mps 721 mmHg 64%
08:00 +18°C° 0 mm 4 mps 721 mmHg 59%
09:00 +20°C° 0 mm 4 mps 721 mmHg 57%
10:00 +21°C° 0 mm 4 mps 721 mmHg 54%
11:00 +22°C° 0 mm 4 mps 720 mmHg 51%
12:00 +22°C° 0.1 mm 4 mps 720 mmHg 50%
13:00 +22°C° 0.1 mm 4 mps 720 mmHg 49%
14:00 +23°C° 0.1 mm 4 mps 720 mmHg 48%
15:00 +23°C° 0 mm 4 mps 720 mmHg 45%
16:00 +23°C° 0 mm 5 mps 720 mmHg 43%
17:00 +25°C° 0 mm 5 mps 720 mmHg 41%
18:00 +22°C° 0 mm 4 mps 719 mmHg 46%
19:00 +21°C° 0 mm 4 mps 719 mmHg 52%
20:00 +20°C° 0 mm 3 mps 719 mmHg 58%
21:00 +19°C° 0 mm 3 mps 719 mmHg 59%
22:00 +19°C° 0 mm 3 mps 719 mmHg 60%
23:00 +18°C° 0 mm 3 mps 719 mmHg 60%

15 June, Tuesday

Time Temperature Precipitation Wind Pressure Humidity
00:00 +17°C° 0 mm 3 mps 718 mmHg 64%
01:00 +16°C° 0 mm 3 mps 718 mmHg 67%
02:00 +15°C° 0 mm 2 mps 718 mmHg 70%
03:00 +14°C° 0 mm 3 mps 718 mmHg 69%
04:00 +14°C° 0 mm 3 mps 718 mmHg 68%
05:00 +14°C° 0 mm 3 mps 718 mmHg 67%
06:00 +17°C° 0 mm 4 mps 719 mmHg 61%
07:00 +19°C° 0 mm 4 mps 719 mmHg 55%
08:00 +21°C° 0 mm 5 mps 719 mmHg 48%
09:00 +22°C° 0 mm 5 mps 719 mmHg 43%
10:00 +23°C° 0 mm 5 mps 719 mmHg 38%
11:00 +26°C° 0 mm 5 mps 719 mmHg 33%
12:00 +26°C° 0 mm 5 mps 719 mmHg 32%
13:00 +27°C° 0 mm 5 mps 718 mmHg 31%
14:00 +27°C° 0 mm 5 mps 718 mmHg 30%
15:00 +27°C° 0 mm 5 mps 718 mmHg 30%
16:00 +27°C° 0 mm 5 mps 718 mmHg 30%
17:00 +27°C° 0 mm 5 mps 718 mmHg 30%
18:00 +26°C° 0 mm 5 mps 717 mmHg 35%
19:00 +23°C° 0 mm 4 mps 717 mmHg 40%
20:00 +21°C° 0 mm 3 mps 717 mmHg 46%
21:00 +20°C° 0 mm 3 mps 717 mmHg 47%
22:00 +19°C° 0 mm 3 mps 717 mmHg 48%
23:00 +18°C° 0 mm 3 mps 717 mmHg 49%

16 June, Wednesday

Time Temperature Precipitation Wind Pressure Humidity
00:00 +17°C° 0 mm 2 mps 717 mmHg 49%
01:00 +17°C° 0 mm 2 mps 716 mmHg 49%
02:00 +16°C° 0 mm 2 mps 716 mmHg 49%
03:00 +16°C° 0 mm 2 mps 716 mmHg 50%
04:00 +16°C° 0 mm 2 mps 717 mmHg 51%
05:00 +16°C° 0 mm 2 mps 717 mmHg 52%
06:00 +19°C° 0 mm 2 mps 717 mmHg 47%
07:00 +21°C° 0 mm 2 mps 717 mmHg 42%
08:00 +24°C° 0 mm 2 mps 717 mmHg 37%
09:00 +25°C° 0 mm 3 mps 717 mmHg 34%
10:00 +26°C° 0 mm 3 mps 717 mmHg 32%
11:00 +27°C° 0 mm 4 mps 717 mmHg 29%
12:00 +28°C° 0 mm 4 mps 717 mmHg 28%
13:00 +29°C° 0 mm 4 mps 717 mmHg 27%
14:00 +29°C° 0 mm 4 mps 717 mmHg 27%
15:00 +29°C° 0 mm 4 mps 716 mmHg 26%
16:00 +29°C° 0 mm 5 mps 716 mmHg 26%
17:00 +29°C° 0 mm 5 mps 716 mmHg 26%
18:00 +28°C° 0 mm 4 mps 716 mmHg 30%
19:00 +26°C° 0 mm 3 mps 716 mmHg 34%
20:00 +24°C° 0 mm 2 mps 716 mmHg 39%
21:00 +24°C° 0 mm 2 mps 716 mmHg 41%
22:00 +23°C° 0 mm 2 mps 716 mmHg 43%
23:00 +21°C° 0 mm 2 mps 716 mmHg 45%

17 June, Thursday

Time Temperature Precipitation Wind Pressure Humidity
00:00 +20°C° 0 mm 2 mps 716 mmHg 47%
01:00 +19°C° 0 mm 2 mps 716 mmHg 50%
02:00 +19°C° 0 mm 1 mps 715 mmHg 53%
03:00 +19°C° 0 mm 1 mps 715 mmHg 53%
04:00 +20°C° 0 mm 1 mps 716 mmHg 54%
05:00 +19°C° 0 mm 2 mps 716 mmHg 55%
06:00 +22°C° 0 mm 1 mps 716 mmHg 49%
07:00 +24°C° 0 mm 1 mps 716 mmHg 43%
08:00 +24°C° 0 mm 0 mps 716 mmHg 37%
09:00 +27°C° 0 mm 1 mps 716 mmHg 34%
10:00 +29°C° 0 mm 1 mps 716 mmHg 31%
11:00 +30°C° 0 mm 2 mps 716 mmHg 27%
12:00 +30°C° 0 mm 2 mps 716 mmHg 27%
13:00 +30°C° 0 mm 2 mps 715 mmHg 26%
14:00 +31°C° 0 mm 2 mps 715 mmHg 25%
15:00 +30°C° 0 mm 2 mps 715 mmHg 26%
16:00 +30°C° 0 mm 2 mps 715 mmHg 27%
17:00 +30°C° 0 mm 2 mps 715 mmHg 28%
18:00 +28°C° 0 mm 2 mps 714 mmHg 33%
19:00 +26°C° 0 mm 3 mps 714 mmHg 37%
20:00 +25°C° 0 mm 3 mps 714 mmHg 42%
21:00 +24°C° 0 mm 2 mps 713 mmHg 41%
22:00 +23°C° 0 mm 2 mps 713 mmHg 41%
23:00 +23°C° 0 mm 2 mps 713 mmHg 40%
Show more